Miscellaneous Local Product
Issued by NWS North Platte, NE

Home | Current Version | Previous Version | Graphics & Text | Print | Product List | Glossary On
Versions: 1 2 3 4 5 6 7 8 9 10 11 12 13 14 15 16 17 18 19 20 21 22 23 24 25 26 27 28 29 30 31 32 33 34 35 36 37 38 39 40 41 42 43 44 45 46 47 48 49 50
299
AXUS43 KLBF 171810
MISLBF


WESTERN AND NORTH CENTRAL NEBRASKA HOURLY WEATHER ROUNDUP
NATIONAL WEATHER SERVICE NORTH PLATTE NE
100 PM CDT THU AUG 17 2017

NOTE: "FAIR" INDICATES FEW OR NO CLOUDS BELOW 12,000 FEET WITH NO
SIGNIFICANT WEATHER AND/OR OBSTRUCTIONS TO VISIBILITY.

NOTE: STATIONS NOT REPORTING VARIABLES SUCH AS SKY/WEATHER OR
PRESSURE ARE PROVIDED BY RAWS AND APRS NETWORKS AND ARE NOT UNDER
NATIONAL WEATHER SERVICE QUALITY CONTROL.

...OBSERVATIONS IN AND NEAR THE EASTERN PANHANDLE OF NEBRASKA...

CITY           SKY/WX    TMP DP  RH WIND       PRES   REMARKS
PINE RIDGE     SUNNY     85  59  41 S8        29.97F
GORDON         FAIR      83  54  37 S10G18    29.98F
CHADRON        SUNNY     84  52  33 N6        29.96F
ALLIANCE       SUNNY     82  54  37 SW13      30.03F
SIDNEY         SUNNY     82  54  37 SW12      30.08F
CRESCENT LAKE    N/A     80  54  40 S13G20      N/A
$$

...OBSERVATIONS IN NORTHERN NEBRASKA AND FAR SOUTHERN SOUTH DAKOTA...

CITY           SKY/WX    TMP DP  RH WIND       PRES   REMARKS
WINNER         FAIR      85  56  37 SE5       29.94F
VALENTINE      SUNNY     85  49  28 SW5       29.96F
THEDFORD       SUNNY     83  56  39 SW13      30.02F
AINSWORTH      SUNNY     81  56  42 SW5       29.99S
O`NEILL        SUNNY     76  58  53 CALM      29.99F
ORD            SUNNY     80  56  43 SW8       29.99F
BROKEN BOW     SUNNY     82  58  43 W8        30.02F
VALENTINE NWR    N/A     80  56  43 SW9         N/A
HALSEY           N/A     81  53  37 SW7         N/A
BUTTE            N/A     77  56  48 CALM        N/A
CHAMBERS         N/A     81  62  51 CALM        N/A
EWING            N/A     77  64  63 W3          N/A
$$

...OBSERVATIONS IN SOUTHWEST NEBRASKA AND FAR NORTHEAST COLORADO...

CITY           SKY/WX    TMP DP  RH WIND       PRES   REMARKS
HOLYOKE        FAIR      81  59  47 SW8G16    30.07F
IMPERIAL       SUNNY     84  54  35 S12G20    30.06F
OGALLALA       SUNNY     82  57  42 SW10      30.04F
NORTH PLATTE   SUNNY     82  58  43 SW7       30.03F
MCCOOK         SUNNY     83  55  38 SW8       30.04F
LEXINGTON      SUNNY     80  56  44 W9        30.04F
STAPLETON        N/A     80  57  44 SW5G14      N/A
GOTHENBURG       N/A     79  53  39 SW6         N/A
CALLAWAY         N/A     77  60  56 W15         N/A
$$

...OBSERVATIONS IN CENTRAL LINCOLN COUNTY AREA...

CITY           SKY/WX    TMP DP  RH WIND       PRES   REMARKS
N.P. AIRPORT   SUNNY     82  58  43 SW7       30.03F
N.P. SOUTHEAST   N/A     83  55  37 SW6         N/A
N.P. HILLCREST   N/A     81  57  43 SW7         N/A
$$

...SOME OBSERVATIONS FROM AROUND THE REGION...

CITY           SKY/WX    TMP DP  RH WIND       PRES   REMARKS
DENVER         MOSUNNY   82  36  19 VRB6      30.15F
LIMON          SUNNY     76  56  49 S12G17    30.18F
ASPEN          CLOUDY    71  33  24 NW10G17   30.35F
LARAMIE        MOSUNNY   75  33  21 NW14G21   30.25F
CASPER         SUNNY     82  32  16 W14G25    30.09F
CHEYENNE       MOSUNNY   76  34  21 NW12G18   30.18S
SCOTTSBLUFF    SUNNY     82  50  32 NW8       30.04F
GRAND ISLAND   SUNNY     80  60  50 W13       30.01F
OMAHA          MOSUNNY   80  59  48 NW21      29.93S
SIOUX FALLS    MOSUNNY   77  62  59 NW16G24   29.89S
PIERRE         SUNNY     79  50  36 E12       29.89F
RAPID CITY     SUNNY     86  49  27 N3        29.92F
BISMARCK       SUNNY     79  52  38 SE13      29.89F
KANSAS CITY    MOSUNNY   79  61  53 W10       29.98R
HILL CITY      SUNNY     84  48  28 S8        30.06F
WICHITA        MOSUNNY   84  58  40 VRB6      30.04F
DODGE CITY     PTSUNNY   83  54  36 SW6       30.10F
OKLAHOMA CITY  MOSUNNY   86  69  56 N5        30.06S HX  90
DALLAS         CLOUDY    89  78  70 SE10      30.00F HX 103
AMARILLO       SUNNY     84  61  45 SE13      30.16S
$$




USA.gov is the U.S. government's official web portal to all federal, state and local government web resources and services.